Du Bois, PA

7:10 AM EST on November 20, 2019 (GMT -0500)
Du Bois-Jefferson County

Weather History for KDUJ - October, 2019

Change the Weather History Date:

Monday, October 21, 2019

  Actual Average Record
Temperature  
Mean Temperature 50 °F 48 °F  
Max Temperature 64 °F 57 °F 78 °F (1979)
Min Temperature 35 °F 38 °F 22 °F (1964)
Degree Days  
Heating Degree Days 15 17  
Month to date heating degree days 276 305  
Since 1 July heating degree days 379 551  
Cooling Degree Days 0 0  
Month to date cooling degree days 23 0  
Year to date cooling degree days 430 360  
Moisture  
Dew Point 42 °F    
Average Humidity 83    
Maximum Humidity 97    
Minimum Humidity 43    
Precipitation  
Precipitation 0.00 in 0.10 in 1.90 in (2016)
Month to date precipitation 2.64 2.11  
Year to date precipitation 39.04 35.35  
Sea Level Pressure  
Sea Level Pressure 30.03 in    
Wind  
Wind Speed 6 mph ()    
Max Wind Speed 18 mph    
Max Gust Speed 27 mph    
Visibility 4.2 miles    
Events Fog    
T = Trace of Precipitation, MM = Missing Value Source: Averaged Metar Reports

Daily Weather History Graph

Daily Weather History Graph

Search for Another Location

Airport or City:

Astronomy

Oct. 21, 2019 Rise Set
Actual Time 7:33 AM EDT 6:26 PM EDT
Civil Twilight 7:05 AM EDT 6:54 PM EDT
Nautical Twilight 6:33 AM EDT 7:26 PM EDT
Astronomical Twilight 6:01 AM EDT 7:58 PM EDT
Moon No Moon Rise 2:52 PM EDT (10/21)
Length of Visible Light 11h 48m
Length of Day
10h 52m
Waning Gibbous, 48% of the Moon is Illuminated
Oct 21
Waning Gibbous
Oct 27
New
Nov 4
First Quarter
Nov 12
Full
Nov 19
Last Quarter

Hourly Weather History & Observations

Time (EDT) Temp. Windchill Dew Point Humidity Pressure Visibility Wind Dir Wind Speed Gust Speed Precip Events Conditions
12:53 AM 46.0 °F 43.1 °F 44.1 °F 93% 30.02 in 7.0 mi East 5.8 mph - N/A   Clear
1:38 AM 45.0 °F 42.6 °F 44.1 °F 97% 30.02 in 1.5 mi East 4.6 mph - N/A   Clear
1:43 AM 45.0 °F 42.6 °F 43.0 °F 93% 30.02 in 0.2 mi East 4.6 mph - N/A Fog Fog
1:53 AM 43.0 °F 40.3 °F 42.1 °F 97% 30.03 in 0.2 mi East 4.6 mph - N/A Fog Fog
2:53 AM 43.0 °F 40.3 °F 42.1 °F 97% 30.03 in 0.2 mi East 4.6 mph - N/A Fog Fog
3:53 AM 41.0 °F - 39.9 °F 96% 30.04 in 0.2 mi Calm Calm - N/A Fog Fog
4:46 AM 39.9 °F 37.8 °F 39.0 °F 97% 30.04 in 0.2 mi East 3.5 mph - N/A Fog Fog
4:53 AM 41.0 °F 39.0 °F 39.9 °F 96% 30.04 in 0.2 mi East 3.5 mph - N/A Fog Fog
5:13 AM 42.1 °F 38.4 °F 39.9 °F 92% 30.04 in 0.5 mi East 5.8 mph - N/A Fog Fog
5:23 AM 39.9 °F 35.8 °F 39.0 °F 97% 30.05 in 0.2 mi East 5.8 mph - N/A Fog Fog
5:30 AM 39.9 °F 35.8 °F 37.9 °F 93% 30.05 in 0.2 mi East 5.8 mph - N/A Fog Fog
5:53 AM 39.0 °F 36.8 °F 37.9 °F 96% 30.05 in 0.2 mi East 3.5 mph - N/A Fog Fog
6:48 AM 37.4 °F - 35.6 °F 93% 30.03 in 0.2 mi Calm Calm - 0.00 in Fog Fog
6:53 AM 37.9 °F - 37.0 °F 97% 30.06 in 0.2 mi Calm Calm - 0.00 in Fog Fog
7:10 AM 37.0 °F - 35.1 °F 93% 30.05 in 0.2 mi Calm Calm - N/A Fog Fog
7:17 AM 37.9 °F - 36.0 °F 93% 30.05 in 0.5 mi Calm Calm - N/A Fog Fog
7:53 AM 36.0 °F 31.1 °F 34.0 °F 93% 30.07 in 0.2 mi East 5.8 mph - N/A Fog Fog
8:06 AM 39.9 °F 35.1 °F 37.9 °F 93% 30.05 in 1.2 mi East 6.9 mph - N/A   Scattered Clouds
8:10 AM 39.9 °F 35.8 °F 39.0 °F 97% 30.05 in 3.0 mi East 5.8 mph - N/A   Scattered Clouds
8:20 AM 39.9 °F 35.1 °F 39.0 °F 97% 30.06 in 1.8 mi East 6.9 mph - N/A   Scattered Clouds
8:36 AM 39.9 °F 35.8 °F 39.0 °F 97% 30.06 in 0.2 mi East 5.8 mph - N/A Fog Fog
8:53 AM 41.0 °F 37.1 °F 39.9 °F 96% 30.09 in 0.2 mi East 5.8 mph - N/A Fog Fog
9:39 AM 42.1 °F 37.7 °F 41.0 °F 96% 30.06 in 0.2 mi East 6.9 mph - N/A Fog Fog
9:53 AM 44.1 °F 40.1 °F 42.1 °F 93% 30.08 in 0.2 mi East 6.9 mph - N/A Fog Fog
10:17 AM 46.9 °F - 45.0 °F 93% 30.07 in 1.0 mi East 5.8 mph - N/A   Mist
10:22 AM 46.9 °F - 45.0 °F 93% 30.06 in 4.0 mi East 6.9 mph - N/A   Mostly Cloudy
10:30 AM 46.0 °F 41.9 °F 45.0 °F 96% 30.06 in 1.8 mi East 8.1 mph - N/A   Overcast
10:38 AM 46.9 °F - 46.0 °F 97% 30.06 in 3.0 mi East 8.1 mph - N/A   Mostly Cloudy
10:50 AM 48.2 °F - 46.4 °F 93% 30.06 in 10.0 mi ESE 9.2 mph - N/A   Scattered Clouds
10:53 AM 48.0 °F - 46.0 °F 93% 30.07 in 10.0 mi ESE 9.2 mph - N/A   Scattered Clouds
11:53 AM 55.9 °F - 46.0 °F 69% 30.05 in 10.0 mi East 10.4 mph 16.1 mph N/A   Clear
12:53 PM 61.0 °F - 41.0 °F 48% 30.04 in 10.0 mi SE 11.5 mph 19.6 mph N/A   Clear
1:53 PM 62.1 °F - 44.1 °F 52% 30.01 in 10.0 mi SE 13.8 mph 20.7 mph N/A   Clear
2:53 PM 64.0 °F - 43.0 °F 46% 29.98 in 10.0 mi ESE 15.0 mph 21.9 mph N/A   Clear
3:53 PM 64.9 °F - 42.1 °F 43% 29.97 in 10.0 mi SE 13.8 mph 20.7 mph N/A   Clear
4:53 PM 63.0 °F - 43.0 °F 48% 29.96 in 10.0 mi SE 10.4 mph 17.3 mph N/A   Clear
5:53 PM 61.0 °F - 42.1 °F 50% 29.96 in 10.0 mi ESE 11.5 mph - N/A   Clear
6:53 PM 59.0 °F - 42.1 °F 53% 29.94 in 10.0 mi ESE 11.5 mph - N/A   Clear
7:53 PM 57.0 °F - 43.0 °F 59% 29.96 in 10.0 mi SE 10.4 mph - N/A   Clear
8:53 PM 57.0 °F - 44.1 °F 62% 29.94 in 10.0 mi SE 12.7 mph - N/A   Clear
9:53 PM 55.9 °F - 45.0 °F 67% 29.96 in 10.0 mi SE 13.8 mph 20.7 mph N/A   Scattered Clouds
10:53 PM 55.9 °F - 46.0 °F 69% 29.92 in 10.0 mi SE 12.7 mph 24.2 mph N/A   Partly Cloudy
11:53 PM 55.9 °F - 46.9 °F 72% 29.91 in 10.0 mi SE 9.2 mph 21.9 mph N/A   Mostly Cloudy